| time (UTC) | temp F | wind direction | speed knots | gust knots | rain 1hr in | rain 24hr in | rain mn in | humidity % | barometer mb |
| 20260902201541 | 76 | 0.0 | 0.0 | 0.00 | 0.00 | 0.00 | 32 | 976.5 | |
| 20260902194251 | 76 | 0.0 | 0.0 | 0.00 | 0.00 | 0.00 | 32 | 976.5 | |
| 20260902194240 | 77 | 0.0 | 0.0 | 0.00 | 0.00 | 0.00 | 32 | 976.4 | |
| 20260902190950 | 77 | 0.0 | 0.0 | 0.00 | 0.00 | 0.00 | 32 | 976.4 | |
| 20260902190940 | 78 | 0.0 | 0.0 | 0.00 | 0.00 | 0.00 | 30 | 976.1 | |
| 20260902183550 | 78 | 0.0 | 0.0 | 0.00 | 0.00 | 0.00 | 30 | 976.1 | |
| 20260902183540 | 78 | 0.0 | 0.0 | 0.00 | 0.00 | 0.00 | 29 | 975.8 | |
| 20260902180150 | 78 | 0.0 | 0.0 | 0.00 | 0.00 | 0.00 | 29 | 975.8 | |
| 20260902180140 | 79 | 0.0 | 0.0 | 0.00 | 0.00 | 0.00 | 28 | 975.9 | |
| 20260902172849 | 79 | 0.0 | 0.0 | 0.00 | 0.00 | 0.00 | 28 | 975.9 | |
| 20260902172839 | 81 | 0.0 | 0.0 | 0.00 | 0.00 | 0.00 | 26 | 975.9 | |
| 20260902165549 | 81 | 0.0 | 0.0 | 0.00 | 0.00 | 0.00 | 26 | 975.9 | |
| 20260902165539 | 86 | 0.0 | 0.0 | 0.00 | 0.00 | 0.00 | 24 | 975.9 | |
| 20260902162249 | 86 | 0.0 | 0.0 | 0.00 | 0.00 | 0.00 | 24 | 975.9 | |
| 20260902162239 | 93 | 0.0 | 0.0 | 0.00 | 0.00 | 0.00 | 21 | 975.9 | |
| 20260902154949 | 93 | 0.0 | 0.0 | 0.00 | 0.00 | 0.00 | 21 | 975.9 | |
| 20260902154939 | 98 | 0.0 | 0.0 | 0.00 | 0.00 | 0.00 | 21 | 976.0 | |
| 20260902151648 | 98 | 0.0 | 0.0 | 0.00 | 0.00 | 0.00 | 21 | 976.0 | |
| 20260902151638 | 101 | 0.0 | 0.0 | 0.00 | 0.00 | 0.00 | 21 | 976.1 | |
| 20260902144448 | 101 | 0.0 | 0.0 | 0.00 | 0.00 | 0.00 | 21 | 976.1 | |
| 20260902144438 | 101 | 0.0 | 0.0 | 0.00 | 0.00 | 0.00 | 21 | 976.2 | |
| 20260902143759 | 101 | 0.0 | 0.0 | 0.00 | 0.00 | 0.00 | 21 | 976.2 | |
| 20260902141237 | 100 | 0.0 | 0.0 | 0.00 | 0.00 | 0.00 | 21 | 976.6 | |
| 20260902134047 | 100 | 0.0 | 0.0 | 0.00 | 0.00 | 0.00 | 21 | 976.6 | |
| 20260902134037 | 101 | 0.0 | 0.0 | 0.00 | 0.00 | 0.00 | 21 | 976.8 | |
| 20260902130647 | 101 | 0.0 | 0.0 | 0.00 | 0.00 | 0.00 | 21 | 976.8 | |
| 20260902130637 | 98 | 0.0 | 0.0 | 0.00 | 0.00 | 0.00 | 22 | 977.2 | |
| 20260902123247 | 98 | 0.0 | 0.0 | 0.00 | 0.00 | 0.00 | 22 | 977.2 | |
| 20260902123237 | 98 | 0.0 | 0.0 | 0.00 | 0.00 | 0.00 | 22 | 977.4 | |
| 20260902115947 | 98 | 0.0 | 0.0 | 0.00 | 0.00 | 0.00 | 22 | 977.4 | |
| 20260902115936 | 97 | 0.0 | 0.0 | 0.00 | 0.00 | 0.00 | 22 | 977.6 | |
| 20260902112636 | 96 | 0.0 | 0.0 | 0.00 | 0.00 | 0.00 | 22 | 978.0 | |
| 20260902105345 | 96 | 0.0 | 0.0 | 0.00 | 0.00 | 0.00 | 22 | 978.0 | |
| 20260902105334 | 94 | 0.0 | 0.0 | 0.00 | 0.00 | 0.00 | 23 | 978.4 | |
| 20260902102046 | 94 | 0.0 | 0.0 | 0.00 | 0.00 | 0.00 | 23 | 978.4 | |
| 20260902102036 | 93 | 0.0 | 0.0 | 0.00 | 0.00 | 0.00 | 24 | 978.6 | |
| 20260902094547 | 93 | 0.0 | 0.0 | 0.00 | 0.00 | 0.00 | 24 | 978.6 | |
| 20260902094533 | 83 | 0.0 | 0.0 | 0.00 | 0.00 | 0.00 | 34 | 978.7 | |
| 20260902091145 | 83 | 0.0 | 0.0 | 0.00 | 0.00 | 0.00 | 34 | 978.7 | |
| 20260902091132 | 81 | 0.0 | 0.0 | 0.00 | 0.00 | 0.00 | 34 | 978.6 | |
| 20260902083844 | 81 | 0.0 | 0.0 | 0.00 | 0.00 | 0.00 | 34 | 978.6 | |
| 20260902083832 | 79 | 0.0 | 0.0 | 0.00 | 0.00 | 0.00 | 38 | 978.8 | |
| 20260902082332 | 79 | 0.0 | 0.0 | 0.00 | 0.00 | 0.00 | 38 | 978.8 | |
| 20260902080545 | 79 | 0.0 | 0.0 | 0.00 | 0.00 | 0.00 | 38 | 978.8 | |
| 20260902080532 | 79 | 0.0 | 0.0 | 0.00 | 0.00 | 0.00 | 38 | 978.8 | |
| 20260902073621 | 79 | 0.0 | 0.0 | 0.00 | 0.00 | 0.00 | 38 | 978.8 | |
| 20260902073244 | 79 | 0.0 | 0.0 | 0.00 | 0.00 | 0.00 | 38 | 978.8 | |
| 20260902073232 | 78 | 0.0 | 0.0 | 0.00 | 0.00 | 0.00 | 42 | 978.8 | |
| 20260902065644 | 78 | 0.0 | 0.0 | 0.00 | 0.00 | 0.00 | 42 | 978.8 | |
| 20260902065631 | 75 | 0.0 | 0.0 | 0.00 | 0.00 | 0.00 | 48 | 978.7 | |
| 20260902062146 | 75 | 0.0 | 0.0 | 0.00 | 0.00 | 0.00 | 48 | 978.7 | |
| 20260902062134 | 73 | 0.0 | 0.0 | 0.00 | 0.00 | 0.00 | 49 | 978.5 | |
| 20260902054643 | 73 | 0.0 | 0.0 | 0.00 | 0.00 | 0.00 | 49 | 978.5 | |
| 20260902054631 | 71 | 0.0 | 0.0 | 0.00 | 0.00 | 0.00 | 49 | 978.4 | |
| 20260902051243 | 71 | 0.0 | 0.0 | 0.00 | 0.00 | 0.00 | 49 | 978.4 | |
| 20260902051231 | 70 | 0.0 | 0.0 | 0.00 | 0.00 | 0.00 | 50 | 978.3 | |
| 20260902043843 | 70 | 0.0 | 0.0 | 0.00 | 0.00 | 0.00 | 50 | 978.3 | |
| 20260902043831 | 70 | 0.0 | 0.0 | 0.00 | 0.00 | 0.00 | 50 | 978.4 | |
| 20260902040444 | 70 | 0.0 | 0.0 | 0.00 | 0.00 | 0.00 | 50 | 978.4 | |
| 20260902040431 | 71 | 0.0 | 0.0 | 0.00 | 0.00 | 0.00 | 48 | 978.2 | |
| 20260902033043 | 71 | 0.0 | 0.0 | 0.00 | 0.00 | 0.00 | 48 | 978.2 | |
| 20260902033031 | 72 | 0.0 | 0.0 | 0.00 | 0.00 | 0.00 | 47 | 978.2 | |
| 20260902025643 | 72 | 0.0 | 0.0 | 0.00 | 0.00 | 0.00 | 47 | 978.2 | |
| 20260902025630 | 74 | 0.0 | 0.0 | 0.00 | 0.00 | 0.00 | 47 | 978.2 | |
| 20260902022343 | 74 | 0.0 | 0.0 | 0.00 | 0.00 | 0.00 | 47 | 978.2 | |
| 20260902022330 | 75 | 0.0 | 0.0 | 0.00 | 0.00 | 0.00 | 46 | 978.2 | |
| 20260902015240 | 75 | 0.0 | 0.0 | 0.00 | 0.00 | 0.00 | 46 | 978.2 | |
| 20260902015142 | 75 | 0.0 | 0.0 | 0.00 | 0.00 | 0.00 | 46 | 978.2 | |
| 20260902015130 | 75 | 0.0 | 0.0 | 0.00 | 0.00 | 0.00 | 47 | 978.1 | |
| 20260902011842 | 75 | 0.0 | 0.0 | 0.00 | 0.00 | 0.00 | 47 | 978.1 | |
| 20260902011830 | 76 | 0.0 | 0.0 | 0.00 | 0.00 | 0.00 | 47 | 978.2 | |
| 20260902004441 | 76 | 0.0 | 0.0 | 0.00 | 0.00 | 0.00 | 47 | 978.2 | |
| 20260902004430 | 76 | 0.0 | 0.0 | 0.00 | 0.00 | 0.00 | 47 | 978.2 | |
| 20260902001041 | 76 | 0.0 | 0.0 | 0.00 | 0.00 | 0.00 | 47 | 978.2 | |
| 20260902001030 | 76 | 0.0 | 0.0 | 0.00 | 0.00 | 0.00 | 48 | 978.2 | |
| 20260902000026 | 76 | 0.0 | 0.0 | 0.00 | 0.00 | 0.00 | 48 | 978.2 | |
| 20260901233641 | 76 | 0.0 | 0.0 | 0.00 | 0.00 | 0.00 | 48 | 978.2 | |
| 20260901233630 | 76 | 0.0 | 0.0 | 0.00 | 0.00 | 0.00 | 46 | 978.1 | |
| 20260901230340 | 76 | 0.0 | 0.0 | 0.00 | 0.00 | 0.00 | 46 | 978.1 | |
| 20260901230331 | 76 | 0.0 | 0.0 | 0.00 | 0.00 | 0.00 | 48 | 978.2 | |
| 20260901223129 | 76 | 0.0 | 0.0 | 0.00 | 0.00 | 0.00 | 48 | 978.2 | |
| 20260901223040 | 76 | 0.0 | 0.0 | 0.00 | 0.00 | 0.00 | 48 | 978.2 | |
| 20260901215829 | 77 | 0.0 | 0.0 | 0.00 | 0.00 | 0.00 | 46 | 978.2 | |
| 20260901215740 | 77 | 0.0 | 0.0 | 0.00 | 0.00 | 0.00 | 46 | 978.2 | |
| 20260901212329 | 78 | 0.0 | 0.0 | 0.00 | 0.00 | 0.00 | 47 | 978.0 | |
| 20260901212240 | 78 | 0.0 | 0.0 | 0.00 | 0.00 | 0.00 | 47 | 978.0 | |
| 20260901205029 | 77 | 0.0 | 0.0 | 0.00 | 0.00 | 0.00 | 48 | 977.4 | |
| 20260901204840 | 77 | 0.0 | 0.0 | 0.00 | 0.00 | 0.00 | 48 | 977.4 |